Regional Weather Roundup
Issued by NWS

Home | Current Version | Previous Version | Text Only | Print | Product List | Glossary Off
Versions: 1 2 3 4 5 6 7 8 9 10 11 12 13 14 15 16 17 18 19 20 21 22 23 24 25 26 27 28 29 30 31 32 33 34 35 36 37 38 39 40 41 42 43 44 45 46 47 48 49 50

513
ASUS43 KOAX 222010
RWRNE

WEATHER ROUNDUP FOR NEBRASKA
NATIONAL WEATHER SERVICE OMAHA NE
300 PM CDT SUN OCT 22 2017

NOTES: SATELLITE DATA IS BEING USED TO AUGMENT CLOUD COVER ABOVE
       12000 FEET.
       "FAIR" INDICATES FEW OR NO CLOUDS BELOW 12,000 FEET WITH NO
       SIGNIFICANT WEATHER AND/OR OBSTRUCTIONS TO VISIBILITY.


NEZ001>004-019>022-054>056-222100-
NEBRASKA PANHANDLE

CITY           SKY/WX    TMP DP  RH WIND       PRES   REMARKS
SCOTTSBLUFF    CLOUDY    69  30  23 W21G33    30.00F
ALLIANCE       SUNNY     68  27  21 MISG      29.98F
CHADRON        CLOUDY    71  25  17 W18       29.93F
GORDON         FAIR      69  29  22 W14G25    29.94S
KIMBALL        CLOUDY    69  28  21 W22G29    30.07F
SIDNEY         CLOUDY    70  28  21 W18G28    30.04F
$$

NEZ057>060-069>072-079>082-222100-
SOUTHWEST NEBRASKA

CITY           SKY/WX    TMP DP  RH WIND       PRES   REMARKS
NORTH PLATTE   SUNNY     69  28  21 W18G26    30.01F
IMPERIAL       SUNNY     70  22  16 W16G25    30.04F
LEXINGTON      SUNNY     68  26  20 SW16G23   30.04F
MCCOOK         SUNNY     70  19  14 SW22G33   30.04F
OGALLALA       SUNNY     70  27  20 W14G20    30.01F
$$

NEZ005>010-023>029-035>040-094-222100-
NORTH CENTRAL NEBRASKA

CITY           SKY/WX    TMP DP  RH WIND       PRES   REMARKS
VALENTINE      SUNNY     69  27  20 W20       29.92F
AINSWORTH      SUNNY     66  31  26 W18G25    29.94F
BROKEN BOW     SUNNY     67  30  25 W26G32    30.00F
O`NEILL        SUNNY     67  29  23 SW17G25   29.96F
ORD            SUNNY     68  29  23 W16G28    29.99F
THEDFORD       SUNNY     69  31  24 W16G26    29.97F
$$

NEZ041-046>049-061>064-073>077-083>087-222100-
SOUTH CENTRAL NEBRASKA

CITY           SKY/WX    TMP DP  RH WIND       PRES   REMARKS
GRAND ISLAND   SUNNY     69  27  20 W14       30.04F
AURORA         SUNNY     68  24  18 W10G20    30.04F
HASTINGS       SUNNY     68  22  17 W22       30.06F
HEBRON         SUNNY     70  23  17 W13       30.06F
HOLDREGE       SUNNY     67  29  24 W17G25    30.05F
KEARNEY        SUNNY     66  25  21 W17G24    30.05F
YORK           SUNNY     68  23  18 SW12G20   30.04F
$$

NEZ011>018-030>034-042>045-222100-
NORTHEAST NEBRASKA

CITY           SKY/WX    TMP DP  RH WIND       PRES   REMARKS
NORFOLK        SUNNY     68  25  19 SW18G25   29.99F
ALBION         SUNNY     68  25  19 SW15G22   30.00F
BLAIR          SUNNY     68  33  27 S12G17    30.04F
COLUMBUS       SUNNY     69  25  19 SW17G24   30.03F
FREMONT        SUNNY     68  29  23 SW10      30.04F
TEKAMAH        SUNNY     69  25  19 SW9       30.02F
WAYNE          SUNNY     67  26  20 SW13G20   29.99F
$$

NEZ050>053-065>068-078-088>093-222100-
SOUTHEAST NEBRASKA

CITY           SKY/WX    TMP DP  RH WIND       PRES   REMARKS
LINCOLN        SUNNY     70  27  20 SW15      30.06F
OMAHA EPPLEY   MOSUNNY   68  31  25 SW7       30.05F
BEATRICE       SUNNY     69  30  23 W10       30.06F
FALLS CITY     SUNNY     68  33  27 VRB5      30.07F
NEBRASKA CITY  SUNNY     67  33  27 W3        30.07F
PLATTSMOUTH    SUNNY     68  29  23 SW8G16    30.06S
$$

NEZ044-045-051>053-067-222100-
OMAHA AREA

CITY           SKY/WX    TMP DP  RH WIND       PRES   REMARKS
OMAHA EPPLEY   MOSUNNY   68  31  25 SW7       30.05F
BLAIR          SUNNY     68  33  27 S12G17    30.04F
FREMONT        SUNNY     68  29  23 SW10      30.04F
MILLARD        SUNNY     68  33  27 SW6       30.05F
PLATTSMOUTH    SUNNY     68  29  23 SW8G16    30.06S
WAHOO          FAIR      71  24  17 SW10G18   30.04F
$$




USA.gov is the U.S. government's official web portal to all federal, state and local government web resources and services.